ORBCOMM FM105 [+]

Last updated on Thu Sep 07 2017 00:18:45 GMT+0000 (Coordinated Universal Time)

1 41181U 15081C 17249.51584636 -.00000049 00000-0 31747-4 0 9991 2 41181 47.0032 349.2799 0002558 219.8029 140.2663 14.43249739 90284
UTC large
Height (km)
Speed (km/s)
/
Latitude / Longitude
Inclination (degrees)
Orbital Period (minutes)
Azimuth
Elevation
Range (km)
Doppler Factor

Next 0 passes for location: London (51.5072 / 0.1276)

Sorry there are no passes over London.